User: anonymous   Login
Location: Unspecified
(0.0000°N, 0.0000°E)
Time: 11:45:19
(UTC+01:00)
Language:

Resurs 01 Rocket - Orbit

View from above orbital plane
View from above orbital plane
View from above satellite
View from above satellite

Ground track
Ground track

The orbit data is extracted from the following two-line orbital elements,

1 23343U 94074B   16041.73502383  .00000107  00000-0  23020-4 0  9991
2 23343  98.2052  66.2637 0006384 200.8275 291.4188 14.76631327144156
Epoch (UTC): 10 February 2016 17:38:26
Eccentricity: 0.0006384
inclination: 98.2052°
perigee height: 635 km
apogee height: 644 km
right ascension of ascending node: 66.2637°
argument of perigee: 200.8275°
revolutions per day: 14.76631327
mean anomaly at epoch: 291.4188°
orbit number at epoch: 14415

The dashed part of the orbit path shows where the satellite is in the earth's shadow,  

DLR